Regional Weather Roundup
Issued by NWS

Home | Current Version | Previous Version | Text Only | Print | Product List | Glossary On
Versions: 1 2 3 4 5 6 7 8 9 10 11 12 13 14 15 16 17 18 19 20 21 22 23 24 25 26 27 28 29 30 31 32 33 34 35 36 37 38 39 40 41 42 43 44 45 46 47 48 49 50
000
ASUS45 KCYS 251910
RWRWY

WYOMING REGIONAL WEATHER ROUNDUP
NATIONAL WEATHER SERVICE CHEYENNE WY
100 PM MDT TUE JUL 25 2017

NOTE:  "FAIR" INDICATES FEW OR NO CLOUDS BELOW 12,000 FEET
WITH NO SIGNIFICANT WEATHER AND/OR OBSTRUCTIONS TO VISIBILITY.

WYZ001-252000-
YELLOWSTONE NATIONAL PARK

CITY           SKY/WX    TMP DP  RH WIND       PRES   REMARKS
LK YELLOWSTONE   N/A     61  51  70 E3        30.35S
W YELLOWSTONE  NOT AVBL

$$
WYZ002>013-054>058-071-098>099-252000-
NORTHERN WYOMING

CITY           SKY/WX    TMP DP  RH WIND       PRES   REMARKS
JACKSON        LGT RAIN  59  55  88 W5        30.27R
CODY           FAIR      64  43  46 NE10G16   30.19S
GREYBULL       CLOUDY    74  42  31 NW8       30.10R
WORLAND        FAIR      75  46  35 N9        30.11R
SHERIDAN       FAIR      73  45  36 NW8       30.15R
BUFFALO        FAIR      70  45  40 N15       30.19R
GILLETTE       FAIR      78  51  38 N15       30.12R
HULETT         FAIR      81  54  39 N13       30.11R
NEWCASTLE      FAIR      82  46  28 E6        30.04F

$$
WYZ014>020-022>026-101>103-252000-
CENTRAL WYOMING

CITY           SKY/WX    TMP DP  RH WIND       PRES   REMARKS
BIG PINEY      CLOUDY    69  48  47 NE14      30.27S
PINEDALE       CLOUDY    68  50  52 E10       30.29S
DUBOIS         CLOUDY    72  37  28 NW10      30.26S
LANDER         CLOUDY    70  50  49 W7        30.17S
RIVERTON       LGT RAIN  67  52  58 SW5       30.19R
CASPER         PTSUNNY   79  46  31 NW8       30.15S
DOUGLAS        FAIR      84  48  28 NW14      30.09F

$$
WYZ021-027>030-104>119-252000-
SOUTHERN WYOMING

CITY           SKY/WX    TMP DP  RH WIND       PRES   REMARKS
EVANSTON       PTSUNNY   65  55  70 MISG      30.29F
KEMMERER         N/A     68  46  45 W10       30.28F
FORT BRIDGER   CLOUDY    71  50  48 W7        30.30S
ROCK SPRINGS   LGT RAIN  65  55  70 S5        30.26S
RAWLINS        LGT RAIN  63  56  78 W12       30.30R
SARATOGA       DRIZZLE   70  52  52 W7        30.29S
LARAMIE        PTSUNNY   77  47  34 N10G23    30.25F
CHEYENNE       FAIR      83  44  25 MISG      30.16S
TORRINGTON     FAIR      91  45  20 NW14G20   30.00F
PINE BLUFFS    FAIR      90  45  20 NW15G23   30.08R

$$



USA.gov is the U.S. government's official web portal to all federal, state and local government web resources and services.